Starlink 31449

operational
NORAD ID: 58966 Int'l Des: 2024-031 Owner: SPXS Country: US Constellation: starlink
LEOCIRCULAR

Starlink 31449について

説明を読み込み中...

リアルタイム位置

3D地球を読み込み中...

次回通過

高度履歴

Altitude vs Time

uPlot chart will show altitude changes over time

軌道要素

1 58966U 24031B 25305.90722148 .00001017 00000-0 46458-4 0 9992
2 58966 53.1594 169.9121 0001252 78.8256 281.2886 15.30190361 96973
Epoch: Nov 1, 2025 • Age: 29 hours

現在のステータス

高度 491.5 km
速度 7.62 km/s
衛星直下点 -45.56°S, 54.64°W
打ち上げ日 Feb 15, 2024
運用期間 1.7 years
タイプ internet

技術仕様

分類 Payload
質量 730.00 kg
乾燥質量 700.00 kg
総質量 730.00 kg
長さ 0.30 m
直径 4.10 m
スパン 29.00 m
形状 Box + pan
製造者 SPXS
バスタイプ Starlink V2M
フェーズステータス In Orbit
所有者/国 SPXS/US

大規模コンステレーション

Loading constellations...